Weather in Lypova Dolyna

Ukraine / Sumi District     50°33′47″N   33°47′28″E
temp.,
°C
wind,
m/s
gust,
m/s
humid.,
%
clouds,
%
prec.,
mm/h
press.,
hPa
HPBL,
m
22 october, fri
fri2200:00+11ssw8177829 0.0 1007553
03:00+10sw71579100 0.0 1007471
06:00+10sw61273100 0.0 1007295
09:00+12sw6146590 0.0 1009611
12:00+16w8124737 0.0 10101272
15:00+17w712405 0.0 10111782
18:00+12wsw36581 0.0 101186
21:00+10wsw496397 0.0 1013165
23 october, sat
sat2300:00+11sw3757100 0.0 1013195
03:00+10sw386099 0.0 1013207
06:00+8wsw411714 0.0 1012249
09:00+9wsw41067100 0.0 1013510
12:00+11w810495 0.0 10141270
15:00+12w8134281 0.0 10152339
18:00+8w510535 0.0 1017279
21:00+5w38645 0.0 1019196
24 october, sun
sun2400:00+4wsw49755 0.0 1020199
03:00+3w4107690 0.0 1020250
06:00+4w386999 0.0 1020197
09:00+6wsw4861100 0.0 1021404
12:00+7w6863100 0.0 10221051
15:00+7nw7106677 0.3 10221198
18:00+4nw71285100 0.1 1023987
21:00+3nnw7127427 0.2 1025872
25 october, mon
mon2500:00+1nnw612765 0.0 1027636
03:000nnw511815 0.0 1028419
06:00−1nnw410895 0.0 1030305
09:000nnw48815 0.0 1032333
12:00+4n46515 0.0 1033853
15:00+6nnw45410 0.0 10331084
18:00+2nnw22540 0.0 103422
21:00+1n11605 0.0 103410
26 october, tue
tue2600:000sse11623 0.0 103510
03:00−1ssw22650 0.0 103510
06:00−2ssw22700 0.0 103419
09:000s35605 0.0 1034141
12:00+6ssw46405 0.0 1033617
15:00+8ssw563341 0.0 1030821
18:00+4ssw474799 0.0 102998
21:00+2ssw495099 0.0 1028159